Location: Lombard
(41.8800°N, 88.0080°W)
Time: 00:34:25
(UTC-05:00)

Gurwin Techsat 1B - Pass Details

Date: 22 May 2022
Orbit: 811 x 814 km, 98.8° (Epoch: 27 June)

Event Time Altitude Azimuth Distance (km) Brightness Sun altitude
Rises 02:23:53 0° 27° (NNE) 3,343 13.3 -23.9°
Reaches altitude 10° 02:26:41 10° 41° (NE) 2,406 12.1 -23.7°
Maximum altitude 02:30:57 24° 94° (E) 1,622 10.4 -23.4°
Enters shadow 02:33:48 16° 136° (SE) 2,008 10.5 -23.1°
